Location: Laura�t
(43.9341°N, 0.2497°E)
Time: 22:58:30
(UTC+00:00)

Gbstr 26 Del rocket - Pass Details

Date: 03 March 2021
Orbit: 492 x 1264 km, 51.8° (Epoch: 17 April)

Event Time Altitude Azimuth Distance (km) Brightness Sun altitude
Rises 19:53:16 0° 291° (WNW) 2,881 7.9 -22.8°
Reaches altitude 10° 19:55:33 10° 301° (WNW) 2,072 6.7 -23.2°
Maximum altitude 19:59:57 35° 8° (N) 1,193 4.5 -24.0°
Enters shadow 20:01:05 32° 34° (NE) 1,312 4.5 -24.2°
